Regional Weather Roundup
Issued by NWS Lake Charles, LA

Home | Current Version | Previous Version | Text Only | Print | Product List | Glossary On
Versions: 1 2 3 4 5 6 7 8 9 10 11 12 13 14 15 16 17 18 19 20 21 22 23 24 25 26 27 28 29 30 31 32 33 34 35 36 37 38 39 40 41 42 43 44 45 46 47 48 49 50
000
ASUS44 KLCH 010510
RWRLCH
RWRLCH
REGIONAL WEATHER ROUNDUP
NATIONAL WEATHER SERVICE LAKE CHARLES LA
1200 AM CDT WED JUL 01 2015

Note: "fair" indicates few or no clouds below 12,000 feet with no
significant weather and/or obstructions to visibility.


ACROSS SOUTHEAST TEXAS

CITY           SKY/WX    TMP DP  RH WIND       PRES   REMARKS
BEAUMONT       NOT AVBL
BEAUMONT CITY    N/A     69  69  99 CALM      30.06R
ORANGE         PTCLDY    70  70 100 CALM      30.07R
JASPER         CLOUDY    73  72  95 CALM      30.07F
$$

ACROSS CENTRAL LOUISIANA

CITY           SKY/WX    TMP DP  RH WIND       PRES   REMARKS
LEESVILLE      CLOUDY    73  70  90 SW2       30.02F
FULLERTON        N/A     74  70  87 CALM      30.02F
ALEXANDRIA INT NOT AVBL
ESLER FIELD    NOT AVBL
DERIDDER         N/A     72  70  95 E3        30.07S
OAKDALE        MOCLDY    70  68  95 CALM      30.06S
OPELOUSAS        N/A    N/A N/A N/A CALM      30.06F
$$

ACROSS SOUTHWEST AND SOUTH CENTRAL LOUISIANA

CITY           SKY/WX    TMP DP  RH WIND       PRES   REMARKS
SULPHUR        MOCLDY    70  70  98 N6        30.06S
LAKE CHARLES   NOT AVBL
CHENNAULT INT  MOCLDY    70  69  95 CALM      30.06F
CAMERON PHI    PTCLDY    75  72  88 CALM      30.08S
DEQUINCY         N/A     68  68 100 CALM      30.05F
JENNINGS         N/A     72  69  92 CALM      30.06F
LAFAYETTE      NOT AVBL
NEW IBERIA     NOT AVBL
ABBEVILLE        N/A     73  72  98 SE7       30.08R
PATTERSON      NOT AVBL
SALT POINT       N/A     76  75  97 CALM      30.08R
$$

SELECTED SITES ACROSS THE REGION

CITY           SKY/WX    TMP DP  RH WIND       PRES   REMARKS
HOUSTON BUSH   NOT AVBL
HOUSTON HOBBY  NOT AVBL
GALVESTON      NOT AVBL
COLLEGE STAT   PTCLDY    73  71  93 S6        30.05S
CONROE         NOT AVBL
HUNTSVILLE     NOT AVBL
LUFKIN         NOT AVBL
SHREVEPORT     PTCLDY    75  70  84 S5        30.03F
MONROE         NOT AVBL
NATCHEZ MS     NOT AVBL
BATON ROUGE    NOT AVBL
N.O. INTL ARPT NOT AVBL
SLIDELL        NOT AVBL
$$

MARINE REPORTS

STATION/POSITION TIME  TEMP    WIND        PRES    VSBY  WAVE
                       AIR SEA DIR/SP/G                  HT/PER
                 (UTC) (F)     (DEG/KT/KT) (MB)    (MI)  (FT/S)
BUOY 30 S HIGH I 0450   82 82  190/  6/  8 1016.9R         4/ 7
SEA RIM ST PARK  0400   74      30/  4/  5 1018.1R
PORT ARTHUR      0400      83     CALM     1017.5R
SABINE PASS N    0400   75 83   30/  5/  6 1017.7R
TEXAS POINT      NOT AVBL
CALCASIEU PASS   0400   75 82   70/  4/  6   N/A
LK CHARLES BEACH 0400   76 84                N/A
MARSH ISLAND     0400   80      50/  1/  4   N/A           0
FRESH WATER LOCK 0400   78 84  100/  1/  1 1018.9R
AMERADA PASS     0400   74 82  110/  6/  7 1018.8R
$$


USA.gov is the U.S. government's official web portal to all federal, state and local government web resources and services.